Miscellaneous Local Product
Issued by NWS Hastings, NE

Home | Current Version | Previous Version | Text Only | Print | Product List | Glossary On
Versions: 1 2 3 4 5 6 7 8 9 10 11 12 13 14 15 16 17 18 19 20 21 22 23 24 25 26 27 28 29 30 31 32 33 34 35 36 37 38 39 40 41 42 43 44 45 46 47 48 49 50
174
AXUS43 KGID 290602
MISGRI

GID CWA HOURLY WEATHER ROUNDUP
NATIONAL WEATHER SERVICE HASTINGS NE
100 AM CDT SAT APR 29 2017

NOTE: "FAIR" INDICATES FEW OR NO CLOUDS BELOW 12,000 FEET WITH NO
SIGNIFICANT WEATHER AND/OR OBSTRUCTIONS TO VISIBILITY.

...SOUTH CENTRAL NEBRASKA...

CITY           SKY/WX    TMP DP  RH WIND       PRES   REMARKS
GRAND ISLAND   CLOUDY    39  39 100 N10       30.09S WCI  32
HASTINGS       CLOUDY    39  36  89 NE14      30.07S WCI  31
KEARNEY        CLOUDY    39  34  81 NE14      30.10R WCI  31
ORD            CLOUDY    40  33  76 N8        30.10R WCI  34
YORK           MOCLDY    41  37  87 NE18      30.08F
AURORA         CLOUDY    40  38  94 NE9       30.07F WCI  33
LEXINGTON      CLOUDY    39  32  76 NE17      30.08S WCI  30
HOLDREGE       CLOUDY    38  35  90 NE16      30.05F WCI  29
HEBRON         CLOUDY    40  38  94 NE15      30.03F FOG     WCI  31

...NEBRASKA PANHANDLE...

CITY           SKY/WX    TMP DP  RH WIND       PRES   REMARKS
CHADRON        CLEAR     33  29  85 N7        30.13F WCI  27
ALLIANCE       CLOUDY    33  29  85 N6        30.12R WCI  28
SCOTTSBLUFF    CLOUDY    34  31  88 SW5       30.15R WCI  30
SIDNEY         CLOUDY    33  31  92 NE9       30.12R WCI  25

...WESTERN AND NORTH CENTRAL NEBRASKA...

CITY           SKY/WX    TMP DP  RH WIND       PRES   REMARKS
VALENTINE      CLOUDY    43  21  41 NE12      30.17F
AINSWORTH      CLOUDY    40  31  68 NE9       30.15S WCI  34
ONEILL         CLOUDY    42  30  62 N10       30.15R
BROKEN BOW     CLOUDY    40  33  76 NE9       30.09S WCI  34
IMPERIAL       CLOUDY    36  33  89 NE5       30.11R WCI  32
NORTH PLATTE   CLOUDY    39  33  79 NE10      30.09R WCI  32
MCCOOK         CLOUDY    37  34  89 NE16G25   30.09S WCI  28

...EASTERN NEBRASKA...

CITY           SKY/WX    TMP DP  RH WIND       PRES   REMARKS
NORFOLK        CLOUDY    42  34  73 NE6       30.13R
SO SIOUX CITY  CLOUDY    44  35  70 N6        30.14R
TEKAMAH        CLOUDY    44  37  76 N8        30.11S
COLUMBUS       CLOUDY    43  36  75 N10       30.10R
ALBION         CLOUDY    42  34  72 N8        30.09F
OMAHA EPPLEY   CLOUDY    44  37  76 N12       30.08S
OFFUTT AFB     CLOUDY    43  37  80 N7        30.06S
MILLARD        CLOUDY    45  40  82 N6        30.08R
LINCOLN        CLOUDY    43  39  86 N13       30.08R
NEBRASKA CITY  CLOUDY    42  39  90 NE15      30.01F
BEATRICE       CLOUDY    42  39  92 NE15      30.01F
FALLS CITY     CLOUDY    44  42  93 N12       29.97F

...NORTHERN KANSAS...

CITY           SKY/WX    TMP DP  RH WIND       PRES   REMARKS
GOODLAND       LGT SNOW  33  33 100 NE21G28   29.99F FOG     WCI  21
HILL CITY      CLOUDY    39  37  92 NE15      30.02F WCI  31
NORTON         CLOUDY    37  34  87 N14       30.05F FOG     WCI  29
PHILLIPSBURG   CLOUDY    39  39 100 N9        30.05S WCI  33
SMITH CENTER   CLOUDY    37  36  93 NE13G20   30.02F WCI  29
HAYS           LGT RAIN  39  37  92 N23       29.96F WCI  28
RUSSELL        LGT RAIN  39  38  96 N22G29    29.93F FOG     WCI  29
CONCORDIA      CLOUDY    41  39  93 N16G24    29.95F
SALINA         CLOUDY    45  40  82 N17       29.92F
TOPEKA         CLOUDY    45  45 100 N15G23    29.90F



USA.gov is the U.S. government's official web portal to all federal, state and local government web resources and services.